Weather History for KADH - October, 2013

Change the Weather History Date:

Monday, October 14, 2013

  Actual Average Record
Temperature  
Mean Temperature 64 °F -  
Max Temperature 68 °F 77 °F 90 °F (1938)
Min Temperature 59 °F 52 °F 33 °F (1969)
Degree Days  
Heating Degree Days 2    
Growing Degree Days 14 (Base 50)    
Moisture  
Dew Point 63 °F    
Average Humidity 99    
Maximum Humidity 100    
Minimum Humidity 94    
Precipitation  
Precipitation 0.84 in - - ()
Sea Level Pressure  
Sea Level Pressure 30.05 in    
Wind  
Wind Speed 11 mph (SE)    
Max Wind Speed 17 mph    
Max Gust Speed 22 mph    
Visibility 7 miles    
Events Rain    
Averages and records for this station are not official NWS values.
T = Trace of Precipitation, MM = Missing Value Source: NWS Daily Summary

Daily Weather History Graph

Daily Weather History Graph

Search for Another Location

Airport or City:

Trip Planner

Search our weather history database for the weather conditions in past years. The results will help you decide how hot, cold, wet, or windy it might be!

Date:

Astronomy

Oct. 14, 2013 Rise Set
Actual Time 7:31 AM CDT 6:52 PM CDT
Civil Twilight 7:06 AM CDT 7:18 PM CDT
Nautical Twilight 6:37 AM CDT 7:47 PM CDT
Astronomical Twilight 6:07 AM CDT 8:16 PM CDT
Moon 4:14 PM CDT (10/14) 3:00 AM CDT (10/14)
Length of Visible Light 12h 11m
Length of Day
11h 20m
Waxing Gibbous, 79% of the Moon is Illuminated
Oct 14
Waxing Gibbous
Oct 18
Full
Oct 26
Last Quarter
Nov 3
New
Nov 9
First Quarter

Hourly Weather History & Observations

Time (CDT) Temp. Dew Point Humidity Pressure Visibility Wind Dir Wind Speed Gust Speed Precip Events Conditions
12:15 AM 64.4 °F 64.4 °F 100% 30.19 in 10.0 mi SSE 8.1 mph - N/A   Clear
12:35 AM 64.4 °F 64.4 °F 100% 30.18 in 10.0 mi SE 9.2 mph - N/A   Scattered Clouds
12:55 AM 64.4 °F 64.4 °F 100% 30.17 in 10.0 mi SE 9.2 mph - N/A   Mostly Cloudy
1:15 AM 64.4 °F 64.4 °F 100% 30.18 in 10.0 mi SE 8.1 mph - N/A   Mostly Cloudy
1:35 AM 64.4 °F 64.4 °F 100% 30.17 in 10.0 mi SE 9.2 mph - N/A   Overcast
1:55 AM 64.4 °F 64.4 °F 100% 30.17 in 10.0 mi ESE 9.2 mph - N/A   Overcast
2:15 AM 64.4 °F 64.4 °F 100% 30.17 in 10.0 mi ESE 10.4 mph - N/A   Overcast
2:35 AM 64.4 °F 64.4 °F 100% 30.17 in 10.0 mi SE 8.1 mph - N/A   Overcast
2:55 AM 64.4 °F 64.4 °F 100% 30.16 in 10.0 mi SE 11.5 mph - N/A   Overcast
3:15 AM 64.4 °F 64.4 °F 100% 30.15 in 10.0 mi SE 11.5 mph 16.1 mph N/A   Overcast
3:35 AM 64.4 °F 64.4 °F 100% 30.14 in 10.0 mi SE 13.8 mph - N/A   Overcast
3:55 AM 64.4 °F 64.4 °F 100% 30.13 in 10.0 mi SE 12.7 mph 19.6 mph N/A   Overcast
4:15 AM 64.4 °F 64.4 °F 100% 30.13 in 10.0 mi SE 12.7 mph 18.4 mph N/A   Overcast
4:35 AM 64.4 °F 64.4 °F 100% 30.12 in 10.0 mi SE 16.1 mph 20.7 mph N/A   Overcast
4:55 AM 64.4 °F 64.4 °F 100% 30.12 in 10.0 mi SE 13.8 mph 19.6 mph N/A   Overcast
5:15 AM 64.4 °F 64.4 °F 100% 30.11 in 10.0 mi SE 13.8 mph 18.4 mph N/A   Overcast
5:35 AM 64.4 °F 64.4 °F 100% 30.11 in 10.0 mi SE 10.4 mph - N/A   Overcast
5:55 AM 64.4 °F 62.6 °F 94% 30.11 in 10.0 mi SE 11.5 mph 18.4 mph N/A   Overcast
6:15 AM 64.4 °F 62.6 °F 94% 30.11 in 10.0 mi SE 9.2 mph - N/A   Overcast
6:35 AM 64.4 °F 62.6 °F 94% 30.12 in 10.0 mi SE 10.4 mph - N/A   Overcast
6:55 AM 64.4 °F 62.6 °F 94% 30.12 in 10.0 mi ESE 10.4 mph 18.4 mph N/A   Overcast
7:15 AM 62.6 °F 60.8 °F 94% 30.12 in 10.0 mi SE 13.8 mph 20.7 mph N/A   Overcast
7:35 AM 62.6 °F 60.8 °F 94% 30.12 in 10.0 mi SE 10.4 mph 18.4 mph N/A   Overcast
7:55 AM 62.6 °F 60.8 °F 94% 30.12 in 10.0 mi SE 11.5 mph - N/A   Overcast
8:15 AM 60.8 °F 60.8 °F 100% 30.12 in 10.0 mi SE 11.5 mph - N/A   Drizzle
8:35 AM 60.8 °F 60.8 °F 100% 30.12 in 7.0 mi SE 8.1 mph - 0.01 in Rain Rain
8:55 AM 60.8 °F 60.8 °F 100% 30.12 in 5.0 mi SE 11.5 mph - 0.10 in Rain Rain
9:15 AM 59.0 °F 59.0 °F 100% 30.12 in 7.0 mi ESE 9.2 mph - 0.04 in Rain Rain
9:35 AM 59.0 °F 59.0 °F 100% 30.11 in 7.0 mi SE 9.2 mph - 0.08 in Rain Rain
9:55 AM 59.0 °F 59.0 °F 100% 30.10 in 7.0 mi ESE 11.5 mph - 0.10 in Rain Light Rain
10:15 AM 59.0 °F 59.0 °F 100% 30.10 in 7.0 mi SE 10.4 mph - 0.03 in Rain Rain
10:35 AM 59.0 °F 59.0 °F 100% 30.10 in 5.0 mi SE 12.7 mph - 0.08 in Rain Rain
10:55 AM 59.0 °F 59.0 °F 100% 30.08 in 3.0 mi SE 12.7 mph 18.4 mph 0.20 in Rain Rain
11:15 AM 59.0 °F 59.0 °F 100% 30.08 in 4.0 mi SSE 12.7 mph 19.6 mph 0.06 in Rain Rain
11:35 AM 59.0 °F 59.0 °F 100% 30.07 in 5.0 mi SE 15.0 mph 21.9 mph 0.12 in Rain Rain
11:55 AM 59.0 °F 59.0 °F 100% 30.07 in 3.0 mi SE 12.7 mph 20.7 mph 0.21 in Rain Heavy Rain
12:15 PM 59.0 °F 59.0 °F 100% 30.06 in 5.0 mi SE 17.3 mph 20.7 mph 0.05 in Rain Rain
12:35 PM 59.0 °F 59.0 °F 100% 30.05 in 7.0 mi SE 11.5 mph 19.6 mph 0.07 in Rain Light Rain
12:55 PM 60.8 °F 60.8 °F 100% 30.04 in 7.0 mi SSE 12.7 mph - 0.08 in Rain Light Rain
1:15 PM 60.8 °F 60.8 °F 100% 30.03 in 7.0 mi SSE 16.1 mph 21.9 mph 0.02 in Rain Light Rain
1:35 PM 60.8 °F 60.8 °F 100% 30.01 in 5.0 mi SSE 15.0 mph 20.7 mph 0.04 in Rain Light Rain
1:55 PM 60.8 °F 60.8 °F 100% 30.00 in 5.0 mi SE 15.0 mph - 0.07 in Rain Light Rain
2:15 PM 60.8 °F 60.8 °F 100% 29.99 in 5.0 mi SE 13.8 mph 20.7 mph 0.01 in Rain Light Rain
2:35 PM 60.8 °F 60.8 °F 100% 29.98 in 7.0 mi SE 11.5 mph - 0.02 in   Drizzle
2:55 PM 60.8 °F 60.8 °F 100% 29.97 in 10.0 mi SSE 9.2 mph - 0.02 in   Drizzle
3:15 PM 62.6 °F 62.6 °F 100% 29.96 in 5.0 mi SSE 10.4 mph - 0.02 in Rain Rain
3:35 PM 62.6 °F 62.6 °F 100% 29.96 in 10.0 mi SSE 9.2 mph - 0.02 in Rain Light Rain
3:55 PM 62.6 °F 62.6 °F 100% 29.95 in 10.0 mi SE 12.7 mph 17.3 mph 0.02 in   Light Drizzle
4:15 PM 62.6 °F 62.6 °F 100% 29.95 in 7.0 mi SE 12.7 mph - N/A Rain Light Rain
4:35 PM 62.6 °F 62.6 °F 100% 29.95 in 7.0 mi SE 10.4 mph - N/A   Light Drizzle
4:55 PM 62.6 °F 62.6 °F 100% 29.94 in 7.0 mi SE 13.8 mph 19.6 mph N/A   Overcast
5:15 PM 62.6 °F 62.6 °F 100% 29.94 in 10.0 mi SE 12.7 mph 18.4 mph N/A   Overcast
5:35 PM 62.6 °F 62.6 °F 100% 29.94 in 5.0 mi SE 12.7 mph 16.1 mph N/A Rain Light Rain
5:55 PM 62.6 °F 62.6 °F 100% 29.94 in 7.0 mi SSE 16.1 mph 19.6 mph 0.01 in   Overcast
6:15 PM 64.4 °F 64.4 °F 100% 29.94 in 7.0 mi SE 15.0 mph - N/A   Overcast
6:35 PM 64.4 °F 64.4 °F 100% 29.94 in 7.0 mi SSE 13.8 mph 17.3 mph N/A   Overcast
6:55 PM 64.4 °F 64.4 °F 100% 29.94 in 7.0 mi SE 15.0 mph - N/A   Overcast
7:15 PM 64.4 °F 64.4 °F 100% 29.93 in 4.0 mi SE 13.8 mph 21.9 mph 0.01 in Rain Heavy Rain
7:35 PM 64.4 °F 64.4 °F 100% 29.93 in 5.0 mi SE 13.8 mph - 0.02 in   Overcast
7:55 PM 64.4 °F 64.4 °F 100% 29.94 in 2.5 mi SE 15.0 mph - 0.02 in Rain Rain
8:15 PM 64.4 °F 64.4 °F 100% 29.94 in 2.5 mi SSE 12.7 mph - N/A   Drizzle
8:35 PM 64.4 °F 64.4 °F 100% 29.95 in 1.8 mi SSE 15.0 mph - N/A   Drizzle
8:55 PM 64.4 °F 64.4 °F 100% 29.95 in 1.0 mi SSE 10.4 mph - 0.01 in   Drizzle
9:15 PM 64.4 °F 64.4 °F 100% 29.95 in 0.8 mi SSE 9.2 mph - N/A   Light Drizzle
9:35 PM 64.4 °F 64.4 °F 100% 29.95 in 2.0 mi SSE 9.2 mph - N/A   Overcast
9:55 PM 64.4 °F 64.4 °F 100% 29.95 in 2.5 mi SSE 10.4 mph - N/A   Overcast
10:15 PM 66.2 °F 66.2 °F 100% 29.96 in 3.0 mi SSE 10.4 mph - N/A   Overcast
10:35 PM 66.2 °F 66.2 °F 100% 29.96 in 4.0 mi SSE 11.5 mph - N/A   Overcast
10:55 PM 68.0 °F 68.0 °F 100% 29.96 in 4.0 mi SSE 12.7 mph - N/A   Overcast
11:15 PM 68.0 °F 68.0 °F 100% 29.95 in 5.0 mi SSE 11.5 mph 17.3 mph N/A   Overcast
11:35 PM 68.0 °F 68.0 °F 100% 29.94 in 5.0 mi SSE 10.4 mph - N/A   Overcast
11:55 PM 68.0 °F 68.0 °F 100% 29.94 in 5.0 mi SSE 11.5 mph - N/A   Overcast